This is the latest recevied weather packets stored in our database for station/object F4JUT-10. If no packets are shown the sender has not sent any weather packets the latest 10 day(s).
| Time | Temp. | Humidity | Pressure | Rain* | Wind** | Luminosity | Snow |
|---|---|---|---|---|---|---|---|
| 1777350771 | 12.22° C | 71% | 1017.9 hPa | - | - | - | - |
| 1777349871 | 11.67° C | 71% | 1017.9 hPa | - | - | - | - |
| 1777348971 | 12.22° C | 69% | 1018 hPa | - | - | - | - |
| 1777348070 | 12.22° C | 69% | 1018.2 hPa | - | - | - | - |
| 1777347170 | 12.22° C | 67% | 1018.2 hPa | - | - | - | - |
| 1777346270 | 12.78° C | 60% | 1018.5 hPa | - | - | - | - |
| 1777345370 | 12.78° C | 59% | 1018.4 hPa | - | - | - | - |
| 1777344470 | 12.78° C | 58% | 1018.5 hPa | - | - | - | - |
| 1777343570 | 12.78° C | 58% | 1018.6 hPa | - | - | - | - |
| 1777342670 | 12.78° C | 57% | 1018.7 hPa | - | - | - | - |
| 1777341770 | 12.78° C | 56% | 1018.7 hPa | - | - | - | - |
| 1777340870 | 12.78° C | 57% | 1018.8 hPa | - | - | - | - |
| 1777339970 | 12.78° C | 56% | 1018.8 hPa | - | - | - | - |
| 1777339070 | 12.78° C | 55% | 1018.9 hPa | - | - | - | - |
| 1777338169 | 12.78° C | 56% | 1019 hPa | - | - | - | - |
| 1777337269 | 12.78° C | 53% | 1019.1 hPa | - | - | - | - |
| 1777336369 | 13.33° C | 55% | 1019.2 hPa | - | - | - | - |
| 1777335469 | 13.33° C | 54% | 1019.2 hPa | - | - | - | - |
| 1777334569 | 13.33° C | 53% | 1019.2 hPa | - | - | - | - |
| 1777333669 | 13.33° C | 52% | 1019.2 hPa | - | - | - | - |
| 1777332769 | 13.89° C | 51% | 1019.4 hPa | - | - | - | - |
| 1777331869 | 13.89° C | 52% | 1019.4 hPa | - | - | - | - |
| 1777330969 | 14.44° C | 54% | 1019.4 hPa | - | - | - | - |
| 1777330069 | 13.89° C | 50% | 1019.4 hPa | - | - | - | - |
| 1777329169 | 14.44° C | 48% | 1019.4 hPa | - | - | - | - |
* Rain since midnight (hover to see other rain measurements)
** Current wind speed in m/s (hover to see current wind gust speed)